Theta_e
341 341 342 342 341 340 341 343 345 344 346 349 351 351 351 351 353 355 356 361 361 361 364 365 363 364 363 362 363 363 363 363 364 363 360 362 362 364 363 362 362 364 362 361 362 362 367 365 367 367 369 370 370 371 374 374 373 370 372 375 372 371 371
341 341 342 342 341 341 342 343 345 345 347 349 351 353 352 351 355 356 359 362 362 361 363 363 364 362 362 362 362 364 365 363 363 363 362 363 365 365 365 366 365 366 366 365 365 367 367 364 365 367 367 369 369 372 371 373 373 373 370 373 370 371 372
340 342 343 343 342 342 344 344 346 346 348 348 349 351 352 355 357 360 361 361 362 361 361 361 364 362 362 363 362 363 363 362 362 361 360 358 361 359 363 365 366 364 364 365 365 364 364 367 367 367 367 368 367 370 372 373 372 371 372 374 370 367 370
340 342 343 344 344 345 346 346 346 347 348 348 348 350 352 356 358 361 362 360 360 360 359 358 359 359 360 361 361 362 362 363 362 360 358 358 359 360 362 364 366 366 364 363 363 363 362 366 367 367 367 369 369 369 369 370 369 370 371 372 369 370 370
341 342 343 343 344 344 345 346 347 349 350 347 350 353 354 356 358 360 360 359 356 357 357 357 355 357 359 360 359 358 361 361 361 361 361 360 362 362 361 361 361 362 363 363 366 367 368 368 366 367 367 368 370 369 369 371 369 372 372 373 369 369 366
341 344 342 343 344 344 344 346 348 350 351 350 351 354 355 357 358 358 360 360 357 355 357 358 355 356 357 358 357 356 359 361 362 363 361 362 363 360 361 361 360 361 360 362 364 365 366 366 365 366 365 364 363 364 366 367 366 368 371 372 370 369 364
341 341 342 342 342 343 343 342 344 348 352 352 353 355 356 357 358 358 359 360 359 357 355 355 354 354 358 358 357 358 358 358 360 360 360 359 361 362 362 362 363 361 361 363 363 364 364 364 366 366 365 364 366 363 366 368 367 367 371 371 370 369 367
343 341 343 344 347 348 344 345 346 346 350 352 353 355 355 357 358 358 359 359 361 361 359 356 354 356 358 359 357 356 357 358 358 360 360 358 360 360 359 361 362 363 363 361 364 365 363 365 363 365 364 363 365 365 366 368 371 368 368 369 368 369 364
344 346 344 344 345 346 347 349 351 349 350 351 351 353 354 356 357 356 359 359 360 360 361 356 356 359 362 361 359 358 357 357 357 359 358 357 356 356 357 359 361 363 362 360 361 364 364 362 362 363 366 365 364 367 367 369 368 367 367 368 369 368 366
344 346 347 348 347 347 349 348 350 347 351 351 352 352 352 353 356 356 357 359 360 359 361 360 360 361 363 363 362 360 358 357 356 355 357 355 355 355 357 358 359 362 361 360 359 359 363 364 363 364 367 365 365 367 366 366 365 365 366 367 368 367 367
345 346 347 347 348 349 351 350 350 351 349 348 349 352 353 355 356 355 356 358 358 359 359 360 361 362 363 364 365 364 361 357 355 354 355 355 354 355 356 357 357 360 361 360 359 359 361 363 363 366 367 361 363 365 365 364 365 365 364 365 366 366 365
344 345 346 348 350 350 350 352 352 352 351 351 350 350 354 357 357 356 357 359 359 358 359 361 362 361 360 363 363 364 364 360 358 356 354 352 354 355 355 356 356 358 360 361 360 361 359 361 361 360 362 363 362 364 365 365 366 366 366 364 365 365 366
342 344 345 346 347 348 350 350 350 349 350 352 354 353 353 354 352 352 356 357 358 360 359 362 362 362 360 360 362 362 363 360 361 358 356 355 355 355 356 357 357 357 358 360 360 359 358 357 361 360 360 363 363 361 363 364 364 367 368 366 366 366 365
342 343 345 345 346 346 347 348 349 350 350 349 350 351 350 351 350 350 353 354 357 359 357 359 360 361 361 359 359 359 358 360 362 362 361 361 363 360 358 357 357 358 360 360 360 358 358 356 355 358 359 360 360 362 364 364 364 366 367 367 365 363 362
339 339 340 342 342 344 345 345 348 348 348 350 349 348 348 348 349 352 353 354 354 354 356 360 359 358 357 358 358 359 360 361 363 365 366 366 365 365 362 360 359 359 360 362 361 358 358 358 354 355 358 358 359 360 360 358 359 359 362 363 363 362 360
338 337 337 338 340 341 344 346 346 347 348 349 349 350 349 349 351 352 352 352 354 356 357 358 358 357 357 357 357 357 359 361 365 366 366 366 367 367 365 363 362 359 359 360 359 361 362 361 360 357 355 355 357 358 356 356 356 363 363 363 362 361 358
335 337 337 338 340 341 343 344 344 345 345 347 348 348 349 351 351 351 354 357 355 355 357 356 355 355 357 355 357 358 357 360 362 365 364 365 364 363 363 364 362 361 362 362 361 361 362 360 359 357 355 354 353 354 353 352 353 360 344 345 349 360 358
335 336 337 336 337 339 339 340 340 339 339 340 341 342 343 343 344 346 347 351 353 356 358 357 355 356 354 355 355 355 356 357 357 358 358 361 362 362 362 362 362 361 361 361 360 363 361 359 359 359 356 354 353 352 351 351 357 339 340 341 340 351 360
334 334 334 335 335 335 335 336 336 336 336 337 338 339 341 344 344 343 345 346 346 350 350 353 356 356 353 354 353 354 353 354 351 353 354 354 357 359 358 359 359 359 358 357 359 359 361 361 358 358 357 355 355 353 352 352 345 336 338 338 337 336 352
333 333 333 334 335 335 335 334 334 335 336 337 338 339 341 344 342 342 343 343 342 341 340 341 343 345 347 350 351 352 353 352 349 348 350 351 352 353 354 354 354 356 358 358 359 358 358 358 360 359 360 358 356 358 356 354 349 335 335 334 332 333 342
332 331 331 331 331 331 332 333 334 335 335 335 335 337 339 339 340 341 341 340 337 337 336 336 337 338 340 341 343 346 348 349 348 349 350 350 350 350 350 351 353 354 356 356 355 357 357 356 358 359 360 359 358 358 356 353 329 330 331 330 329 330 340
331 330 329 329 329 330 331 333 334 333 333 337 338 336 338 339 340 338 337 336 334 334 335 336 336 335 336 336 337 337 338 339 340 342 343 342 342 344 345 346 349 352 355 355 356 356 357 358 357 357 359 362 363 361 360 352 325 327 328 327 329 332 354
331 329 327 326 327 328 332 332 331 330 332 333 332 332 333 333 334 336 335 335 334 333 332 332 332 332 332 332 334 336 337 338 338 338 337 338 339 339 339 340 342 343 345 353 355 354 355 356 357 359 358 358 359 360 360 358 329 320 321 323 324 334 359
328 325 323 322 325 326 327 327 327 328 329 330 331 332 333 333 334 333 332 331 332 332 331 330 329 330 331 332 334 335 335 336 334 332 332 333 334 335 337 339 340 338 342 343 348 352 353 356 357 358 358 355 354 356 358 352 331 318 318 321 324 338 358
326 325 324 323 322 323 325 325 326 326 327 326 326 328 330 330 330 328 328 330 331 332 330 328 329 330 330 331 333 334 335 335 335 333 332 332 331 335 336 335 337 339 343 343 343 345 348 349 348 348 346 345 345 347 351 349 337 317 316 316 318 337 360
322 323 324 324 325 325 326 327 325 323 322 322 324 326 328 327 326 326 324 324 326 326 328 329 329 330 331 332 333 333 333 334 334 333 333 332 333 337 337 339 337 337 342 342 343 344 346 348 344 340 341 343 344 343 343 344 340 328 314 315 318 323 352
326 326 325 325 324 326 323 323 322 322 322 323 324 324 324 324 324 323 324 324 324 324 325 328 331 332 332 331 330 331 331 332 332 331 332 332 333 334 334 335 336 337 339 341 344 346 345 340 340 340 341 344 344 343 343 342 340 335 313 312 313 318 337
327 326 327 327 327 325 323 321 321 321 321 323 323 323 324 325 324 323 323 322 320 322 326 328 329 330 332 331 329 328 329 331 332 331 331 334 334 333 333 335 335 338 341 342 344 343 340 339 338 337 338 341 344 343 340 339 338 340 321 312 311 311 318
327 326 324 324 324 324 323 322 320 320 321 321 322 323 323 324 323 324 323 322 322 322 324 325 326 328 329 330 328 328 329 330 330 330 329 331 333 334 332 334 335 337 339 339 340 340 337 336 335 335 335 337 338 340 338 337 337 330 334 317 310 309 312
325 323 324 323 323 323 323 322 321 321 322 323 325 325 324 325 324 325 324 324 325 325 325 325 325 327 326 327 327 326 326 326 327 329 329 330 332 332 332 331 333 334 336 337 337 336 335 333 334 333 331 332 334 335 338 335 333 329 328 328 315 310 307
321 323 321 322 323 322 321 321 322 322 323 325 326 326 326 325 324 324 323 324 326 326 325 325 324 324 324 324 325 326 325 324 326 326 327 328 328 329 330 331 332 331 333 334 334 335 334 334 335 332 330 330 329 331 332 333 333 332 333 330 329 320 314
321 321 320 322 323 321 320 320 321 320 320 321 321 322 323 323 323 323 323 323 324 325 324 324 325 324 324 324 324 324 326 325 323 323 325 325 325 327 327 328 329 330 330 330 329 330 331 330 331 331 333 330 329 330 331 332 332 333 335 334 334 333 326
320 320 320 320 321 321 321 321 319 317 316 317 318 319 318 319 320 322 323 322 321 323 324 325 324 324 323 323 323 324 325 325 323 323 323 324 323 321 322 323 325 326 328 328 327 328 328 328 329 329 328 329 328 330 332 333 334 335 334 335 334 333 335
318 319 321 321 321 322 321 319 318 317 316 315 316 316 316 316 317 318 320 319 320 322 323 323 324 322 323 323 324 324 324 323 319 322 322 322 323 322 322 322 323 323 324 324 325 326 326 327 326 325 326 326 327 328 330 330 334 331 328 329 329 330 333
320 321 321 320 320 320 320 319 318 319 318 317 317 317 317 317 317 317 318 318 320 323 323 322 323 323 322 322 322 322 325 323 322 322 322 323 327 324 322 322 323 324 326 323 323 321 321 324 324 324 324 325 326 325 327 329 329 324 309 318 305 315 326
319 320 319 322 320 321 321 321 321 319 318 319 320 319 319 319 319 319 318 319 319 320 321 321 321 321 321 322 321 322 322 323 322 322 324 321 322 325 324 318 311 317 323 323 320 311 301 303 320 319 323 324 327 326 323 323 321 303 297 295 295 296 297
318 318 317 320 320 319 320 320 321 321 321 320 320 319 319 319 319 319 319 320 320 320 320 320 319 319 318 319 319 318 322 322 322 324 325 324 323 324 323 325 323 300 304 314 315 308 302 297 299 301 306 319 324 321 310 308 300 297 295 295 296 294 294
321 319 318 318 317 318 318 318 318 318 319 320 320 319 319 318 318 319 318 319 319 319 319 319 319 318 318 319 319 319 320 320 321 322 323 323 323 324 323 322 323 324 305 303 306 302 300 301 300 301 302 303 308 321 325 314 303 295 296 295 295 295 294
Wind_Speed
18 17 16 15 15 16 15 13 14 13 13 13 13 13 12 11 11 10 10 11 11 12 12 12 11 10 11 10 10 9 9 8 7 7 7 6 5 4 5 5 5 4 4 4 4 4 3 3 3 3 3 3 3 3 3 3 3 3 3 3 3 2 2
17 16 16 16 15 15 16 15 14 13 13 13 12 13 12 13 12 11 10 11 12 12 12 12 12 11 10 10 9 10 10 9 8 7 6 6 5 5 5 5 4 4 4 3 2 3 3 4 5 4 4 4 5 4 4 4 4 4 3 4 4 2 3
17 16 16 15 15 14 15 15 15 14 14 13 12 12 12 12 13 13 12 12 12 12 12 12 12 12 10 10 10 10 10 10 10 9 9 8 8 8 6 5 5 5 5 4 4 3 5 5 4 4 5 5 5 5 4 4 4 5 4 3 4 4 3
17 18 17 16 15 13 13 13 14 14 13 13 13 13 13 14 14 12 12 13 13 13 13 12 12 12 11 11 11 10 10 11 10 9 10 9 8 8 7 6 5 5 5 5 5 5 3 4 5 5 5 5 5 4 4 4 4 5 5 4 4 3 4
16 16 16 15 15 13 13 12 13 13 13 13 12 12 13 14 13 11 12 12 13 14 14 13 11 11 10 10 9 9 10 11 10 9 8 8 8 7 7 8 7 7 5 5 5 5 4 4 5 5 6 6 6 6 6 5 5 5 5 5 5 4 4
13 11 11 14 14 12 12 11 12 12 12 12 12 11 11 11 10 11 10 11 11 12 12 12 12 11 11 11 10 9 9 9 9 9 9 8 8 8 8 8 7 7 7 7 6 6 6 6 6 6 6 7 7 6 6 6 6 6 5 5 5 4 4
15 16 15 15 13 12 12 11 11 12 11 11 11 10 10 10 11 10 9 10 11 11 12 13 12 11 10 9 10 10 10 10 10 11 10 10 9 9 9 8 8 7 7 6 7 6 6 6 6 6 6 6 6 6 5 4 4 4 4 4 4 4 4
15 15 14 14 11 11 12 12 12 12 10 10 10 10 11 10 10 11 10 9 10 10 10 11 12 11 10 10 9 11 10 11 10 10 10 11 10 10 10 9 8 8 7 7 7 7 7 7 7 7 7 7 6 5 4 5 5 5 5 5 5 5 5
11 12 13 14 15 14 13 11 8 7 9 10 10 10 10 9 10 10 11 10 10 11 11 11 11 10 10 10 10 11 10 10 10 10 10 11 11 12 11 10 10 8 9 8 7 8 7 7 7 7 7 6 5 6 6 6 6 5 5 4 5 5 5
11 10 12 13 13 12 11 12 14 14 11 10 9 9 11 10 9 9 9 10 10 12 12 10 8 9 9 9 10 11 10 10 10 10 10 11 11 12 11 10 10 9 9 9 8 8 8 7 7 7 6 7 6 6 7 6 7 7 6 6 6 6 5
7 8 10 12 11 11 11 11 12 11 11 10 10 9 9 10 9 8 8 9 10 10 11 10 9 9 9 9 9 9 9 10 10 11 11 11 10 12 11 11 10 9 9 9 9 8 8 8 7 7 7 7 8 8 7 7 7 7 7 6 6 6 6
5 7 9 11 10 9 11 10 8 8 8 7 9 9 9 9 8 8 7 7 8 8 9 9 9 10 10 9 9 9 9 9 10 10 11 11 11 11 11 10 10 9 9 9 9 8 8 8 8 8 8 7 7 7 7 7 7 7 7 7 7 7 7
7 5 7 9 9 8 8 9 9 9 8 6 5 5 5 7 8 8 7 6 5 6 8 9 9 10 10 10 10 9 9 9 10 10 10 10 9 9 9 9 9 10 9 9 9 9 9 9 8 8 8 8 8 8 7 7 8 7 7 8 7 6 6
5 7 6 5 6 5 6 8 8 9 9 8 6 5 5 5 6 8 8 7 5 4 6 6 7 8 8 8 9 9 10 9 9 9 9 8 7 8 9 9 9 9 9 8 9 10 10 9 9 9 8 8 7 7 7 7 7 8 8 8 8 7 7
7 7 6 6 5 6 6 6 6 7 8 9 9 8 7 7 7 7 8 8 9 9 7 5 4 5 7 8 9 8 7 7 7 7 7 7 7 8 8 8 8 8 8 8 9 8 9 9 9 9 8 8 7 7 7 8 8 8 8 8 8 8 8
7 8 7 7 7 8 7 7 7 5 7 8 9 9 9 9 9 9 9 9 9 10 11 10 9 8 6 7 7 7 6 6 6 6 6 6 6 6 8 9 9 9 9 9 9 9 8 8 9 9 9 8 8 9 8 8 7 5 3 2 5 6 6
5 6 8 8 8 7 8 9 9 9 8 8 6 5 4 4 3 2 1 4 8 9 9 10 11 11 9 6 3 3 2 5 6 6 6 7 7 7 7 8 8 8 7 8 8 8 8 8 9 9 9 9 9 10 9 8 8 10 11 9 8 7 8
7 8 9 10 9 9 9 10 11 11 10 9 9 8 8 7 6 5 3 2 1 2 4 6 8 9 10 10 8 6 6 5 6 6 7 7 7 7 7 6 7 8 8 8 9 8 8 9 9 9 9 9 10 10 10 9 7 14 11 10 9 7 7
9 10 11 11 11 10 10 10 10 11 10 9 8 8 8 7 6 5 4 4 6 5 3 2 6 8 9 9 8 8 9 7 6 5 6 4 5 6 7 7 7 8 9 10 10 9 9 9 9 10 10 10 10 10 9 10 11 12 11 9 8 8 7
9 10 10 10 11 11 11 11 10 11 12 12 11 10 8 7 8 8 8 8 8 6 7 7 7 4 2 1 6 8 8 7 6 5 4 5 5 4 5 8 9 9 8 8 9 9 9 9 10 10 10 10 9 9 8 10 7 9 9 8 7 6 6
11 11 11 11 11 12 13 13 13 13 12 12 11 10 10 9 9 10 10 9 10 9 9 9 8 7 6 7 7 5 2 4 6 7 5 3 5 7 6 7 6 7 8 8 9 8 9 10 10 9 9 10 9 9 10 2 9 9 8 8 7 7 6
11 10 11 10 12 12 12 13 13 13 12 11 11 11 10 10 10 12 13 11 9 9 9 9 10 9 8 9 9 8 7 7 6 5 5 4 3 2 1 0 2 5 7 8 7 8 7 8 10 10 8 8 8 7 9 6 10 9 6 3 4 6 5
11 12 13 12 11 11 11 11 11 10 10 10 10 9 8 9 9 10 12 12 10 10 9 9 9 9 8 9 8 7 7 7 7 7 7 6 5 5 5 4 4 6 6 3 6 6 6 6 7 6 6 7 6 6 7 3 8 6 4 4 2 5 6
13 13 14 14 12 12 11 11 10 11 12 12 12 10 9 9 8 10 10 11 10 10 9 8 8 8 8 8 7 6 6 6 7 7 6 6 6 6 5 5 4 3 4 4 3 2 2 1 1 2 3 5 5 5 6 5 8 8 6 2 1 4 6
13 13 13 12 12 12 12 11 11 12 11 11 12 10 9 9 10 10 10 10 9 9 9 8 8 7 8 7 7 7 6 6 6 6 6 5 5 4 5 4 4 3 2 2 3 4 4 3 3 6 8 9 4 6 5 5 9 11 9 9 7 5 5
13 13 13 13 12 12 12 11 12 12 12 11 10 8 9 8 9 10 9 8 9 9 9 9 8 7 7 7 7 7 7 6 6 6 5 5 4 3 4 3 2 2 2 3 3 2 1 3 5 7 6 4 4 5 5 5 7 10 11 12 11 9 5
12 11 13 13 13 12 10 10 10 11 10 9 8 8 8 8 9 9 9 8 9 9 8 7 7 7 6 6 6 7 7 6 6 6 6 5 4 4 4 3 2 2 2 2 2 2 3 5 6 7 6 6 6 6 6 6 7 8 12 12 13 13 9
9 13 12 12 10 9 10 10 11 11 11 9 9 8 7 8 8 7 7 7 9 8 6 6 6 6 6 6 6 6 6 6 5 5 5 5 5 5 5 4 3 2 3 4 4 7 8 6 6 6 5 4 6 6 5 6 7 5 8 10 11 12 13
8 7 10 12 10 10 10 9 9 9 9 8 8 7 8 8 8 7 7 8 7 6 5 5 5 5 5 5 5 5 6 6 6 5 5 5 5 5 5 5 5 4 4 4 6 6 7 7 7 6 6 4 3 3 4 4 5 6 4 6 8 7 7
8 9 9 9 9 9 8 9 8 8 8 7 7 7 6 6 6 7 7 7 5 4 4 4 4 3 4 4 4 4 4 4 4 4 4 5 4 5 5 5 5 5 4 4 4 5 6 6 6 5 5 4 3 4 5 4 3 3 3 3 5 5 6
7 7 8 9 9 7 7 7 8 8 8 7 7 6 6 6 6 7 7 5 3 3 3 3 3 3 3 3 3 3 4 4 4 4 4 3 4 3 3 4 3 4 4 4 4 4 4 5 4 4 4 4 4 4 3 3 3 2 1 2 2 2 6
6 6 8 8 7 6 6 7 7 7 7 7 6 6 5 5 6 6 5 4 3 3 3 3 3 3 3 2 3 3 2 3 4 4 3 3 3 3 3 3 3 3 2 3 3 3 3 3 2 2 2 3 4 3 3 3 2 1 1 2 4 3 5
6 6 7 7 8 9 6 4 4 4 6 6 5 5 6 6 5 5 3 3 3 4 3 3 3 3 3 3 3 3 3 3 3 2 3 2 2 3 3 3 2 3 3 3 3 3 3 2 2 1 1 1 1 2 1 2 2 2 3 4 4 4 4
4 6 5 3 4 4 6 5 5 6 6 5 4 4 5 5 5 5 5 5 5 4 4 4 4 3 3 3 3 3 3 3 2 1 3 3 3 4 4 3 3 4 4 5 4 3 2 2 2 2 3 3 3 2 1 1 1 4 6 6 6 5 5
9 7 7 7 2 2 3 5 5 7 7 6 5 5 5 5 5 5 5 5 5 4 4 4 4 3 3 3 3 4 2 2 3 4 3 3 4 5 6 6 5 4 4 6 5 5 5 4 3 3 3 3 3 3 3 3 4 5 4 4 4 4 5
8 8 8 5 7 4 4 6 7 7 7 5 5 5 5 5 5 4 5 5 5 5 4 4 4 4 5 6 6 5 4 3 4 4 4 3 3 3 6 8 8 6 6 5 7 6 5 5 5 5 5 4 3 4 4 4 5 7 9 8 6 5 5
11 8 6 6 7 7 7 6 6 7 7 6 5 5 5 5 4 4 4 4 4 4 4 3 3 3 3 4 4 5 5 5 5 4 3 4 4 3 2 3 6 5 9 8 4 5 6 6 4 5 6 5 3 7 12 10 7 9 7 8 8 8 8
10 10 9 8 7 8 8 8 8 7 7 6 6 6 5 5 4 3 4 4 4 4 4 3 3 3 3 3 3 3 3 3 4 4 3 3 2 2 1 2 0 4 3 8 11 6 5 4 4 4 5 6 7 6 3 7 7 7 7 7 6 6 7
Wind_Direction
186 186 189 192 191 193 191 190 194 193 191 191 193 195 192 191 187 186 185 181 187 189 190 193 196 193 194 196 198 196 201 201 201 204 204 213 218 215 206 210 203 215 223 210 203 205 196 203 212 202 194 193 210 196 211 208 213 211 203 209 229 257 259
187 186 188 189 190 192 190 190 194 195 193 193 195 192 191 188 184 188 185 183 188 190 191 195 197 199 199 199 198 200 202 205 208 211 215 209 212 216 226 211 227 209 225 243 211 201 195 191 205 207 210 199 204 212 204 206 214 224 213 198 231 228 233
190 189 187 186 190 190 191 190 191 195 196 195 194 192 191 186 185 187 184 186 188 190 194 197 197 201 202 201 204 203 205 208 205 208 214 213 206 217 211 223 219 215 217 208 223 206 190 198 191 206 215 212 212 194 213 213 213 220 216 213 229 220 217
185 187 188 186 187 189 192 192 192 194 197 197 193 193 189 188 190 186 188 189 186 188 196 198 199 202 202 203 207 207 209 211 214 211 214 220 213 213 217 209 222 230 204 216 202 211 187 190 190 196 207 210 214 215 212 222 216 207 210 213 232 223 236
185 185 182 184 185 185 188 187 192 193 195 198 193 194 190 189 190 186 192 193 194 194 195 199 201 200 202 204 207 208 210 212 212 218 219 220 221 219 217 221 208 218 216 208 200 198 210 206 203 197 196 207 207 207 216 210 219 208 210 210 230 227 231
164 153 178 183 180 175 174 181 192 192 190 195 191 189 189 183 189 192 191 191 197 195 194 199 204 199 202 203 209 208 206 210 215 216 223 222 220 219 216 217 224 216 207 215 204 201 198 215 215 200 202 198 211 211 205 205 209 209 201 217 231 244 251
169 172 174 181 175 177 182 182 187 192 188 189 185 183 183 182 187 190 190 189 194 191 194 197 202 202 203 209 207 209 209 208 207 216 217 222 219 223 221 219 224 217 219 199 214 210 204 208 211 209 208 220 208 215 198 209 216 208 209 214 223 236 254
174 177 178 172 157 181 192 186 184 189 181 180 179 176 182 179 179 181 185 186 188 188 201 198 199 201 200 206 210 212 211 215 211 212 219 222 219 219 219 220 216 219 216 215 205 214 215 208 210 203 208 213 208 217 211 199 208 227 215 217 222 236 227
168 167 167 171 174 178 181 164 141 214 174 173 173 175 181 180 184 185 183 182 184 187 194 203 198 195 195 201 205 209 213 216 217 213 218 222 222 218 217 211 215 212 214 219 214 203 219 207 215 202 204 220 210 205 215 210 219 224 231 232 231 239 256
165 164 173 179 180 163 165 150 171 184 167 173 174 177 183 188 186 187 189 189 187 191 190 197 197 189 194 198 202 206 212 215 224 222 218 220 221 223 219 218 210 206 216 217 219 211 200 217 215 199 203 218 216 212 221 212 217 225 221 220 232 241 237
143 164 173 178 173 160 157 153 163 163 173 183 187 185 182 176 176 182 194 198 198 195 194 192 192 187 189 195 202 204 211 216 217 222 222 224 225 222 220 220 220 207 214 217 217 220 201 200 211 209 204 218 216 218 221 221 220 222 230 231 228 229 237
144 167 175 176 174 163 164 157 151 155 168 175 182 187 185 174 164 172 191 202 202 198 193 188 186 186 192 193 197 200 206 214 219 225 226 226 226 228 225 220 220 218 206 220 217 218 214 201 204 206 208 220 226 221 218 221 226 224 233 236 228 222 229
161 167 171 181 181 179 171 169 161 159 173 176 163 164 171 171 166 179 184 196 197 200 193 185 186 190 197 195 193 192 197 206 218 224 226 225 233 234 228 226 223 220 216 211 220 218 216 209 206 208 210 209 219 223 216 218 223 225 227 235 244 246 244
129 148 141 145 159 149 170 180 179 176 177 187 178 158 156 158 172 183 188 180 167 168 203 200 195 193 198 201 199 195 199 202 209 223 229 234 229 236 239 233 229 226 224 221 217 222 221 221 211 206 211 216 219 223 223 218 223 223 228 235 239 239 236
141 119 124 129 125 133 144 165 161 169 177 177 184 182 177 178 186 188 194 193 187 191 191 162 172 202 212 207 207 201 198 202 206 207 210 218 221 223 233 235 234 233 233 225 229 224 225 225 226 223 218 216 221 227 230 228 223 223 219 218 225 241 248
137 137 136 135 139 143 144 131 133 141 168 180 185 181 184 188 194 195 196 196 200 197 198 184 185 183 195 212 219 219 207 201 206 196 195 198 203 214 223 227 230 231 224 228 228 232 235 237 234 231 226 223 220 224 227 231 234 209 104 323 264 250 256
144 137 131 132 135 127 118 121 121 109 95 90 97 132 145 129 138 169 210 221 214 209 206 203 205 203 198 193 168 138 156 209 210 207 206 200 204 213 224 232 227 225 230 231 229 234 228 230 234 235 236 235 231 226 226 228 230 151 161 188 228 255 255
123 120 111 110 105 103 101 101 102 99 97 93 92 91 95 94 92 101 109 99 64 240 214 210 215 211 211 196 182 180 182 182 197 208 222 224 211 206 211 221 230 227 219 225 224 218 228 225 226 233 238 237 237 235 234 237 150 146 165 189 204 225 259
106 109 107 102 103 107 106 105 102 99 95 94 92 95 101 112 109 97 86 70 51 39 27 271 227 221 222 211 191 187 190 187 193 196 199 190 224 220 203 207 217 227 226 228 227 220 213 223 225 223 227 235 239 240 235 245 138 161 161 180 190 196 235
115 107 105 109 110 106 103 100 100 101 101 100 98 94 97 105 104 96 89 85 88 83 75 75 64 70 71 207 197 187 187 179 176 180 201 213 211 240 229 206 212 219 230 238 232 225 222 218 219 221 223 228 231 234 238 246 124 147 154 165 185 177 218
115 110 108 106 103 103 104 107 107 105 103 99 97 99 103 103 105 105 98 97 94 92 88 78 77 68 65 62 51 59 110 183 198 197 192 185 208 210 220 234 232 225 225 232 239 234 233 232 224 224 223 224 226 227 233 83 80 101 127 134 162 161 213
118 112 108 107 109 108 110 107 104 101 98 101 103 104 105 103 100 92 88 82 74 78 86 88 85 77 64 57 52 53 60 75 83 90 97 99 79 114 188 229 235 213 216 216 228 238 240 243 241 233 229 235 240 238 234 88 49 51 53 82 135 182 222
114 113 111 109 104 99 93 95 95 89 89 86 85 77 69 70 76 88 95 93 88 77 73 70 72 75 70 71 62 57 57 59 66 65 69 72 86 83 61 50 27 10 352 295 219 213 223 235 238 251 254 248 239 241 252 144 46 56 93 106 128 229 237
114 115 111 106 103 99 96 93 90 91 91 90 86 83 85 81 74 75 80 83 85 80 71 66 73 77 75 73 71 64 63 71 76 72 60 50 49 49 51 46 39 25 357 4 356 300 209 93 45 55 24 1 333 286 231 63 33 19 24 15 13 270 246
112 109 109 109 110 107 101 95 94 94 90 89 91 92 92 86 84 87 85 89 88 84 81 74 66 68 77 79 79 78 70 66 73 80 76 64 52 37 58 52 36 39 23 8 25 33 354 15 27 54 49 40 10 326 37 59 48 29 26 12 360 325 249
118 118 112 108 102 99 98 100 102 96 92 88 87 92 87 82 74 70 73 74 80 78 78 76 69 60 58 67 74 74 71 65 58 65 66 70 83 76 69 72 51 10 17 13 353 19 23 54 89 99 104 129 93 91 39 44 56 40 33 31 20 0 312
121 118 116 110 111 117 112 105 95 92 89 86 86 79 77 78 77 73 66 67 65 64 60 61 71 69 65 60 66 72 76 74 61 63 64 59 53 59 70 48 29 46 17 68 120 127 95 92 89 82 83 89 89 82 61 46 44 39 29 29 24 16 9
100 112 99 102 110 111 108 106 105 103 100 102 103 102 94 83 77 79 82 80 78 68 58 60 60 62 62 65 65 69 69 65 59 58 60 53 60 63 58 50 51 73 88 85 88 111 109 95 76 78 66 53 61 72 78 61 51 33 41 32 33 28 19
82 92 114 116 115 112 113 109 105 98 97 95 89 91 97 102 102 98 91 82 75 86 85 72 66 68 73 73 77 75 72 68 65 59 58 58 56 54 57 67 72 72 90 113 117 114 105 90 85 84 84 73 68 73 88 78 62 27 43 51 40 34 43
89 90 83 86 102 105 102 103 99 93 84 79 84 88 91 99 100 94 89 82 70 66 66 70 83 91 93 89 73 69 70 72 78 75 74 69 65 64 64 61 60 62 68 90 108 110 102 100 105 112 116 113 114 130 118 109 102 65 19 16 42 26 27
94 92 89 81 74 71 84 87 89 91 89 82 79 77 82 87 92 91 84 83 83 73 69 74 69 63 72 73 82 91 85 69 58 58 60 70 69 65 73 78 78 69 56 63 65 77 86 106 119 128 131 141 138 133 140 123 121 86 24 334 12 32 20
116 124 117 110 97 78 85 82 71 82 93 97 97 92 81 77 77 74 66 58 47 47 52 59 73 70 51 63 64 47 77 104 89 67 58 58 75 75 43 45 57 64 56 84 95 77 70 64 78 108 127 139 127 130 127 134 126 96 29 347 10 30 27
102 121 132 139 144 152 145 137 133 131 103 91 82 85 87 79 78 77 72 48 47 60 42 55 82 83 74 55 60 68 48 31 36 83 90 47 89 90 83 64 63 64 40 28 41 73 68 51 52 38 69 88 70 93 119 140 147 63 20 6 8 15 7
146 122 112 111 145 159 150 149 144 139 120 108 91 74 72 78 71 56 35 36 36 45 54 48 22 56 72 78 81 59 60 82 91 314 68 52 21 41 54 55 45 59 54 36 19 14 34 57 54 27 16 12 10 9 340 307 289 40 11 358 358 355 350
178 166 152 142 151 205 158 156 148 134 135 129 119 105 89 70 61 63 58 39 37 33 44 47 46 28 51 64 74 76 38 49 48 35 48 89 104 74 34 18 26 33 70 59 34 11 360 354 11 48 19 23 22 357 2 325 39 33 2 349 353 328 330
169 163 167 165 162 197 190 166 149 145 137 130 123 112 103 94 80 58 49 44 40 35 44 48 45 42 31 22 18 25 30 33 57 40 5 29 40 82 103 67 53 39 8 68 55 41 31 1 23 3 350 342 45 53 5 8 15 1 0 352 340 326 295
164 167 168 177 168 179 184 162 157 148 143 139 135 123 116 107 98 87 73 62 56 49 52 41 45 48 58 47 41 18 359 8 22 35 32 14 17 23 15 150 114 85 93 84 77 62 32 40 26 14 8 355 356 89 86 77 46 11 353 340 335 325 315
171 168 168 172 190 183 172 168 169 162 150 148 147 139 134 124 116 107 97 80 69 65 62 47 41 45 39 49 64 54 21 16 13 358 5 19 3 356 355 328 45 144 214 155 138 143 130 115 86 43 29 28 19 2 99 65 41 3 346 335 329 325 319